Doha, Qatar

6:05 PM AST on August 29, 2016 (GMT +0300)
Doha International

Weather History for OTBD - August, 2013

Change the Weather History Date:

Monday, August 19, 2013

  Actual Average Record
Temperature  
Mean Temperature 96 °F -  
Max Temperature 102 °F 102 °F 111 °F (1999)
Min Temperature 89 °F 81 °F 80 °F (1997)
Cooling Degree Days 30    
Growing Degree Days 46 (Base 50)    
Moisture  
Dew Point 82 °F    
Average Humidity 65    
Maximum Humidity 84    
Minimum Humidity 42    
Precipitation  
Precipitation 0.00 in 0.00 in - ()
Sea Level Pressure  
Sea Level Pressure 29.51 in    
Wind  
Wind Speed 5 mph ()    
Max Wind Speed 13 mph    
Max Gust Speed -    
Visibility 5.0 miles    
Events      
Averages and records for this station are not official NWS values.
T = Trace of Precipitation, MM = Missing Value Source: Averaged Metar Reports

Daily Weather History Graph

Daily Weather History Graph

Search for Another Location

Airport or City:

Trip Planner

Search our weather history database for the weather conditions in past years. The results will help you decide how hot, cold, wet, or windy it might be!

Date:

Astronomy

Aug. 19, 2013 Rise Set
Actual Time 5:09 AM AST 6:05 PM AST
Civil Twilight 4:45 AM AST 6:28 PM AST
Nautical Twilight 4:17 AM AST 6:56 PM AST
Astronomical Twilight 3:48 AM AST 7:25 PM AST
Moon 4:37 PM AST (8/19) 3:06 AM AST (8/19)
Length of Visible Light 13h 43m
Length of Day
12h 56m
Waxing Gibbous, 96% of the Moon is Illuminated
Aug 19
Waxing Gibbous
Aug 21
Full
Aug 28
Last Quarter
Sep 5
New
Sep 12
First Quarter

Hourly Weather History & Observations

Time (AST) Temp. Heat Index Dew Point Humidity Pressure Visibility Wind Dir Wind Speed Gust Speed Precip Events Conditions
12:00 AM 93.2 °F 117.1 °F 82.4 °F 71% 29.47 in - South 3.5 mph - N/A   Clear
12:30 AM 93.2 °F 117.1 °F 82.4 °F 71% 29.47 in - South 4.6 mph - N/A   Clear
1:00 AM 93.2 °F 117.1 °F 82.4 °F 71% 29.47 in - SSW 3.5 mph - N/A   Clear
1:30 AM 93.2 °F 120.9 °F 84.2 °F 75% 29.47 in - Variable 2.3 mph - N/A   Clear
2:00 AM 91.4 °F 122.4 °F 86.0 °F 84% 29.47 in - South 3.5 mph - N/A   Clear
2:30 AM 91.4 °F 117.8 °F 84.2 °F 79% 29.47 in - NNE 3.5 mph - N/A   Clear
3:00 AM 92 °F - 84 °F 73% 29.50 in 6 mi 1.2 mph - -   Haze
3:00 AM 91.4 °F 117.8 °F 84.2 °F 79% 29.47 in 5.6 mi Variable 1.2 mph - N/A   Unknown
3:30 AM 91.4 °F 117.8 °F 84.2 °F 79% 29.50 in 5.6 mi South 5.8 mph - N/A   Unknown
4:00 AM 91.4 °F 117.8 °F 84.2 °F 79% 29.50 in 5.6 mi SSW 6.9 mph - N/A   Unknown
4:30 AM 91.4 °F 117.8 °F 84.2 °F 79% 29.50 in 4.3 mi SSW 5.8 mph - N/A   Unknown
5:00 AM 91.4 °F 117.8 °F 84.2 °F 79% 29.50 in 4.3 mi SSW 5.8 mph - N/A   Unknown
5:30 AM 91.4 °F 117.8 °F 84.2 °F 79% 29.50 in 3.7 mi SSW 3.5 mph - N/A   Unknown
6:00 AM 89.6 °F 115.0 °F 84.2 °F 84% 29.53 in 3.7 mi Variable 2.3 mph - N/A   Unknown
6:30 AM 91.4 °F 117.8 °F 84.2 °F 79% 29.53 in 3.7 mi NNE 5.8 mph - N/A   Unknown
7:00 AM 93.2 °F 120.9 °F 84.2 °F 75% 29.53 in 4.3 mi NE 4.6 mph - N/A   Unknown
7:30 AM 95.0 °F 119.6 °F 82.4 °F 67% 29.53 in 5.0 mi ENE 5.8 mph - N/A   Unknown
8:00 AM 96.8 °F 121.7 °F 82.4 °F 63% 29.56 in 5.0 mi East 10.4 mph - N/A   Unknown
8:30 AM 96.8 °F 126.0 °F 84.2 °F 67% 29.56 in 5.0 mi East 11.5 mph - N/A   Unknown
9:00 AM 98 °F - 84 °F 56% 29.57 in 5 mi East 9.2 mph - -   Haze
9:00 AM 98.6 °F 128.0 °F 84.2 °F 63% 29.56 in 5.0 mi East 9.2 mph - N/A   Unknown
9:30 AM 98.6 °F 120.3 °F 80.6 °F 56% 29.56 in 5.0 mi East 8.1 mph - N/A   Unknown
10:00 AM 100.4 °F 122.7 °F 80.6 °F 53% 29.56 in 5.0 mi East 8.1 mph - N/A   Unknown
10:30 AM 100.4 °F 126.1 °F 82.4 °F 56% 29.56 in 5.0 mi East 6.9 mph - N/A   Unknown
11:00 AM 100.4 °F 126.1 °F 82.4 °F 56% 29.53 in 5.0 mi East 8.1 mph - N/A   Unknown
11:30 AM 102.2 °F 119.3 °F 77.0 °F 45% 29.53 in 5.6 mi East 8.1 mph - N/A   Unknown
12:00 PM 102.2 °F 121.5 °F 78.8 °F 47% 29.53 in 5.6 mi East 9.2 mph - N/A   Unknown
12:30 PM 100.4 °F 126.1 °F 82.4 °F 56% 29.53 in - East 10.4 mph - N/A   Clear
1:00 PM 102.2 °F 124.9 °F 80.6 °F 50% 29.50 in - East 10.4 mph - N/A   Clear
2:00 PM 100.4 °F 119.5 °F 78.8 °F 50% 29.50 in - East 10.4 mph - N/A   Clear
2:30 PM 100.4 °F 119.5 °F 78.8 °F 50% 29.50 in - East 10.4 mph - N/A   Clear
3:00 PM 101 °F - 80 °F 42% 29.50 in 6 mi East 9.2 mph - -   Scattered Clouds
3:00 PM 100.4 °F 122.7 °F 80.6 °F 53% 29.47 in - East 9.2 mph - N/A   Clear
3:30 PM 100.4 °F 122.7 °F 80.6 °F 53% 29.47 in 5.6 mi East 11.5 mph - N/A   Unknown
4:00 PM 98.6 °F 120.3 °F 80.6 °F 56% 29.47 in 5.6 mi East 10.4 mph - N/A   Unknown
4:30 PM 96.8 °F 118.6 °F 80.6 °F 60% 29.47 in - East 12.7 mph - N/A   Clear
5:00 PM 96.8 °F 121.7 °F 82.4 °F 63% 29.47 in - East 10.4 mph - N/A   Clear
5:30 PM 96.8 °F 118.6 °F 80.6 °F 60% 29.47 in 5.6 mi East 9.2 mph - N/A   Unknown
6:00 PM 95.0 °F 115.8 °F 80.6 °F 63% 29.47 in 5.6 mi East 8.1 mph - N/A   Unknown
6:30 PM 95.0 °F 115.8 °F 80.6 °F 63% 29.50 in 5.6 mi East 6.9 mph - N/A   Unknown
7:00 PM 95.0 °F 112.2 °F 78.8 °F 59% 29.50 in 5.6 mi East 5.8 mph - N/A   Unknown
7:30 PM 95.0 °F 115.8 °F 80.6 °F 63% 29.50 in 5.0 mi East 6.9 mph - N/A   Unknown
8:00 PM 95.0 °F 123.7 °F 84.2 °F 71% 29.53 in 5.0 mi East 5.8 mph - N/A   Unknown
9:00 PM 93.2 °F 120.9 °F 84.2 °F 75% 29.53 in 5.0 mi East 4.6 mph - N/A   Unknown
10:00 PM 93.2 °F 124.9 °F 86.0 °F 79% 29.53 in 4.3 mi East 3.5 mph - N/A   Unknown
11:00 PM 93.2 °F 124.9 °F 86.0 °F 79% 29.53 in 3.1 mi NE 3.5 mph - N/A   Unknown